| time (UTC) | temp F | wind direction | speed MPH | gust MPH | rain 1hr in | rain 24hr in | rain mn in | humidity % | barometer mb |
| 20260508005408 | 60 | 0 | 0.0 | 0.0 | 0.00 | 0.06 | 0.00 | 80 | 1023.0 |
| 20260508004508 | 60 | 0 | 0.0 | 0.0 | 0.00 | 0.06 | 0.00 | 77 | 1023.0 |
| 20260508003603 | 60 | 0 | 0.0 | 0.0 | 0.00 | 0.06 | 0.00 | 74 | 1023.0 |
| 20260508002703 | 59 | 0 | 0.0 | 0.0 | 0.00 | 0.09 | 0.00 | 76 | 1022.8 |
| 20260508001815 | 59 | 0 | 0.0 | 0.0 | 0.00 | 0.09 | 0.00 | 76 | 1022.8 |
| 20260508000908 | 59 | 0 | 0.0 | 0.0 | 0.00 | 0.09 | 0.00 | 79 | 1022.6 |
| 20260508000008 | 58 | 0 | 0.0 | 0.0 | 0.00 | 0.10 | 0.00 | 80 | 1022.7 |
| 20260507235408 | 58 | 0 | 0.0 | 0.0 | 0.00 | 0.12 | 0.00 | 80 | 1022.7 |
| 20260507234503 | 58 | 0 | 0.0 | 0.0 | 0.00 | 0.13 | 0.00 | 82 | 1022.7 |
| 20260507233605 | 57 | 0 | 0.0 | 0.0 | 0.00 | 0.13 | 0.00 | 83 | 1022.6 |
| 20260507232708 | 57 | 0 | 0.0 | 0.0 | 0.00 | 0.13 | 0.00 | 83 | 1022.5 |
| 20260507231803 | 57 | 0 | 0.0 | 0.0 | 0.00 | 0.13 | 0.00 | 83 | 1022.5 |
| 20260507231113 | 57 | 0 | 0.0 | 0.0 | 0.00 | 0.14 | 0.00 | 83 | 1022.5 |
| 20260507230018 | 56 | 0 | 0.0 | 0.0 | 0.00 | 0.18 | 0.00 | 83 | 1022.5 |
| 20260507225403 | 56 | 0 | 0.0 | 0.0 | 0.00 | 0.20 | 0.00 | 84 | 1022.4 |
| 20260507224508 | 56 | 0 | 0.0 | 0.0 | 0.00 | 0.20 | 0.00 | 84 | 1022.3 |
| 20260507223823 | 56 | 0 | 0.0 | 0.0 | 0.00 | 0.20 | 0.00 | 84 | 1022.1 |
| 20260507222708 | 56 | 0 | 0.0 | 0.0 | 0.00 | 0.20 | 0.00 | 85 | 1022.2 |
| 20260507221803 | 56 | 0 | 0.0 | 0.0 | 0.00 | 0.20 | 0.00 | 85 | 1022.1 |
| 20260507220903 | 56 | 0 | 0.0 | 0.0 | 0.00 | 0.20 | 0.00 | 85 | 1022.1 |
| 20260507220214 | 55 | 0 | 0.0 | 0.0 | 0.00 | 0.20 | 0.00 | 85 | 1021.9 |
| 20260507215403 | 56 | 0 | 0.0 | 0.0 | 0.00 | 0.21 | 0.00 | 85 | 1021.8 |
| 20260507214503 | 56 | 0 | 0.0 | 0.0 | 0.00 | 0.22 | 0.00 | 85 | 1021.5 |
| 20260507213603 | 56 | 0 | 0.0 | 0.0 | 0.00 | 0.22 | 0.00 | 84 | 1021.4 |
| 20260507212708 | 56 | 0 | 0.0 | 0.0 | 0.00 | 0.24 | 0.00 | 83 | 1021.2 |
| 20260507211808 | 56 | 0 | 0.0 | 0.0 | 0.00 | 0.24 | 0.00 | 83 | 1021.1 |
| 20260507211112 | 56 | 0 | 0.0 | 0.0 | 0.00 | 0.24 | 0.00 | 83 | 1021.0 |
| 20260507210004 | 56 | 0 | 0.0 | 0.0 | 0.00 | 0.25 | 0.00 | 83 | 1020.9 |
| 20260507205403 | 56 | 0 | 0.0 | 0.0 | 0.00 | 0.25 | 0.00 | 83 | 1020.9 |
| 20260507204503 | 56 | 0 | 0.0 | 0.0 | 0.00 | 0.26 | 0.00 | 83 | 1020.9 |
| 20260507203603 | 56 | 0 | 0.0 | 0.0 | 0.00 | 0.26 | 0.00 | 83 | 1020.7 |
| 20260507202703 | 56 | 0 | 0.0 | 0.0 | 0.00 | 0.28 | 0.00 | 82 | 1020.8 |
| 20260507201805 | 56 | 0 | 0.0 | 0.0 | 0.00 | 0.31 | 0.00 | 83 | 1020.7 |
| 20260507200905 | 56 | 0 | 0.0 | 0.0 | 0.00 | 0.32 | 0.00 | 83 | 1020.6 |
| 20260507200003 | 56 | 0 | 0.0 | 0.0 | 0.00 | 0.32 | 0.00 | 83 | 1020.6 |
| 20260507195613 | 56 | 0 | 0.0 | 0.0 | 0.00 | 0.32 | 0.00 | 83 | 1020.5 |
| 20260507194505 | 56 | 0 | 0.0 | 0.0 | 0.00 | 0.32 | 0.00 | 83 | 1020.4 |
| 20260507193605 | 56 | 0 | 0.0 | 0.0 | 0.00 | 0.34 | 0.00 | 84 | 1020.3 |
| 20260507192915 | 56 | 0 | 0.0 | 0.0 | 0.00 | 0.34 | 0.00 | 84 | 1020.2 |
| 20260507192012 | 56 | 0 | 0.0 | 0.0 | 0.00 | 0.34 | 0.00 | 84 | 1020.3 |
| 20260507190905 | 56 | 0 | 0.0 | 0.0 | 0.00 | 0.34 | 0.00 | 84 | 1020.2 |
| 20260507190005 | 56 | 0 | 0.0 | 0.0 | 0.00 | 0.36 | 0.00 | 84 | 1020.1 |
| 20260507185403 | 56 | 0 | 0.0 | 0.0 | 0.00 | 0.37 | 0.00 | 84 | 1020.2 |
| 20260507184714 | 56 | 0 | 0.0 | 0.0 | 0.00 | 0.38 | 0.00 | 84 | 1020.1 |
| 20260507183605 | 56 | 0 | 0.0 | 0.0 | 0.00 | 0.42 | 0.00 | 84 | 1020.1 |
| 20260507182703 | 56 | 0 | 0.0 | 0.0 | 0.00 | 0.42 | 0.00 | 84 | 1020.0 |
| 20260507181803 | 56 | 0 | 0.0 | 0.0 | 0.00 | 0.42 | 0.00 | 83 | 1019.9 |
| 20260507180905 | 55 | 0 | 0.0 | 0.0 | 0.00 | 0.42 | 0.00 | 83 | 1019.8 |
| 20260507180219 | 55 | 0 | 0.0 | 0.0 | 0.00 | 0.42 | 0.00 | 83 | 1019.8 |
| 20260507175403 | 55 | 0 | 0.0 | 0.0 | 0.00 | 0.42 | 0.00 | 83 | 1019.7 |
| 20260507174503 | 55 | 0 | 0.0 | 0.0 | 0.00 | 0.42 | 0.00 | 84 | 1019.6 |
| 20260507173605 | 55 | 0 | 0.0 | 0.0 | 0.00 | 0.42 | 0.00 | 83 | 1019.8 |
| 20260507172703 | 55 | 0 | 0.0 | 0.0 | 0.00 | 0.42 | 0.00 | 83 | 1019.7 |
| 20260507171804 | 55 | 0 | 0.0 | 0.0 | 0.00 | 0.42 | 0.00 | 83 | 1019.7 |
| 20260507170903 | 55 | 0 | 0.0 | 0.0 | 0.00 | 0.42 | 0.00 | 83 | 1019.7 |
| 20260507170219 | 55 | 0 | 0.0 | 0.0 | 0.00 | 0.42 | 0.00 | 83 | 1019.7 |
| 20260507165403 | 55 | 0 | 0.0 | 0.0 | 0.00 | 0.42 | 0.00 | 83 | 1019.7 |
| 20260507164503 | 55 | 0 | 0.0 | 0.0 | 0.00 | 0.42 | 0.00 | 83 | 1019.8 |
| 20260507163603 | 54 | 0 | 0.0 | 0.0 | 0.00 | 0.42 | 0.00 | 83 | 1019.9 |
| 20260507162703 | 54 | 0 | 0.0 | 0.0 | 0.00 | 0.42 | 0.00 | 83 | 1019.8 |
| 20260507161803 | 54 | 0 | 0.0 | 0.0 | 0.00 | 0.42 | 0.00 | 83 | 1019.8 |
| 20260507161113 | 54 | 0 | 0.0 | 0.0 | 0.00 | 0.42 | 0.00 | 83 | 1019.8 |
| 20260507160003 | 54 | 0 | 0.0 | 0.0 | 0.00 | 0.42 | 0.00 | 83 | 1019.9 |
| 20260507155614 | 54 | 0 | 0.0 | 0.0 | 0.00 | 0.42 | 0.00 | 83 | 1020.0 |
| 20260507154504 | 54 | 0 | 0.0 | 0.0 | 0.00 | 0.42 | 0.00 | 83 | 1020.0 |
| 20260507153603 | 54 | 0 | 0.0 | 0.0 | 0.00 | 0.42 | 0.00 | 83 | 1020.1 |
| 20260507152914 | 54 | 0 | 0.0 | 0.0 | 0.00 | 0.42 | 0.00 | 83 | 1020.2 |
| 20260507151805 | 54 | 0 | 0.0 | 0.0 | 0.00 | 0.42 | 0.00 | 83 | 1020.2 |
| 20260507151114 | 54 | 0 | 0.0 | 0.0 | 0.00 | 0.42 | 0.00 | 83 | 1020.3 |
| 20260507150214 | 54 | 0 | 0.0 | 0.0 | 0.00 | 0.42 | 0.00 | 83 | 1020.5 |
| 20260507145404 | 54 | 0 | 0.0 | 0.0 | 0.00 | 0.42 | 0.00 | 83 | 1020.5 |
| 20260507144503 | 53 | 0 | 0.0 | 0.0 | 0.00 | 0.42 | 0.00 | 83 | 1020.6 |
| 20260507143814 | 53 | 0 | 0.0 | 0.0 | 0.00 | 0.42 | 0.00 | 83 | 1020.6 |
| 20260507142915 | 53 | 0 | 0.0 | 0.0 | 0.00 | 0.42 | 0.00 | 83 | 1020.7 |
| 20260507141810 | 53 | 0 | 0.0 | 0.0 | 0.00 | 0.42 | 0.00 | 84 | 1020.7 |
| 20260507140903 | 53 | 0 | 0.0 | 0.0 | 0.00 | 0.42 | 0.00 | 83 | 1020.8 |
| 20260507140213 | 53 | 0 | 0.0 | 0.0 | 0.00 | 0.42 | 0.00 | 83 | 1020.8 |
| 20260507135408 | 53 | 0 | 0.0 | 0.0 | 0.00 | 0.42 | 0.42 | 83 | 1020.9 |
| 20260507134510 | 52 | 0 | 0.0 | 0.0 | 0.01 | 0.42 | 0.42 | 84 | 1020.9 |
| 20260507133604 | 52 | 0 | 0.0 | 0.0 | 0.01 | 0.42 | 0.42 | 84 | 1021.0 |
| 20260507132703 | 52 | 0 | 0.0 | 0.0 | 0.01 | 0.42 | 0.42 | 84 | 1021.1 |
| 20260507131808 | 52 | 0 | 0.0 | 0.0 | 0.01 | 0.42 | 0.42 | 84 | 1021.4 |
| 20260507130908 | 52 | 0 | 0.0 | 0.0 | 0.01 | 0.42 | 0.42 | 83 | 1021.5 |
| 20260507130004 | 52 | 0 | 0.0 | 0.0 | 0.01 | 0.42 | 0.42 | 83 | 1021.5 |
| 20260507125408 | 52 | 0 | 0.0 | 0.0 | 0.01 | 0.42 | 0.42 | 83 | 1021.6 |
| 20260507124503 | 52 | 0 | 0.0 | 0.0 | 0.00 | 0.41 | 0.41 | 82 | 1021.6 |
| 20260507123608 | 52 | 0 | 0.0 | 0.0 | 0.00 | 0.41 | 0.41 | 81 | 1021.7 |
| 20260507122708 | 52 | 0 | 0.0 | 0.0 | 0.00 | 0.41 | 0.41 | 81 | 1021.9 |
| 20260507121803 | 52 | 0 | 0.0 | 0.0 | 0.00 | 0.41 | 0.41 | 81 | 1021.9 |
| 20260507120903 | 52 | 0 | 0.0 | 0.0 | 0.00 | 0.41 | 0.41 | 81 | 1021.9 |
| 20260507120008 | 52 | 0 | 0.0 | 0.0 | 0.00 | 0.41 | 0.41 | 82 | 1022.0 |
| 20260507115414 | 52 | 0 | 0.0 | 0.0 | 0.00 | 0.41 | 0.41 | 82 | 1022.0 |
| 20260507114508 | 52 | 0 | 0.0 | 0.0 | 0.00 | 0.41 | 0.41 | 82 | 1021.9 |
| 20260507113613 | 51 | 0 | 0.0 | 0.0 | 0.00 | 0.41 | 0.41 | 83 | 1022.0 |
| 20260507112703 | 51 | 0 | 0.0 | 0.0 | 0.00 | 0.41 | 0.41 | 83 | 1022.0 |
| 20260507111808 | 51 | 0 | 0.0 | 0.0 | 0.00 | 0.41 | 0.41 | 83 | 1022.0 |
| 20260507110908 | 51 | 0 | 0.0 | 0.0 | 0.00 | 0.41 | 0.41 | 83 | 1021.9 |
| 20260507110003 | 51 | 0 | 0.0 | 0.0 | 0.00 | 0.41 | 0.41 | 83 | 1022.0 |
| 20260507105408 | 52 | 0 | 0.0 | 0.0 | 0.00 | 0.41 | 0.41 | 83 | 1022.1 |
| 20260507104508 | 52 | 0 | 0.0 | 0.0 | 0.00 | 0.41 | 0.41 | 82 | 1022.2 |
| 20260507103608 | 52 | 0 | 0.0 | 0.0 | 0.01 | 0.42 | 0.41 | 82 | 1022.3 |
| 20260507102914 | 52 | 0 | 0.0 | 0.0 | 0.01 | 0.42 | 0.41 | 81 | 1022.4 |
| 20260507101808 | 52 | 0 | 0.0 | 0.0 | 0.01 | 0.42 | 0.41 | 79 | 1022.6 |
| 20260507101115 | 53 | 0 | 0.0 | 0.0 | 0.01 | 0.42 | 0.41 | 78 | 1022.5 |
| 20260507100004 | 53 | 0 | 0.0 | 0.0 | 0.01 | 0.43 | 0.41 | 76 | 1022.4 |
| 20260507095403 | 53 | 0 | 0.0 | 0.0 | 0.01 | 0.43 | 0.41 | 75 | 1022.4 |
| 20260507094723 | 53 | 0 | 0.0 | 0.0 | 0.01 | 0.43 | 0.41 | 74 | 1022.3 |
| 20260507093814 | 53 | 0 | 0.0 | 0.0 | 0.01 | 0.43 | 0.41 | 74 | 1022.3 |
| 20260507092703 | 53 | 0 | 0.0 | 0.0 | 0.00 | 0.56 | 0.40 | 74 | 1022.4 |
| 20260507091808 | 53 | 0 | 0.0 | 0.0 | 0.00 | 0.56 | 0.40 | 74 | 1022.3 |
| 20260507090903 | 53 | 0 | 0.0 | 0.0 | 0.00 | 0.56 | 0.40 | 74 | 1022.2 |
| 20260507090004 | 53 | 0 | 0.0 | 0.0 | 0.00 | 0.57 | 0.40 | 73 | 1022.2 |
| 20260507085403 | 53 | 0 | 0.0 | 0.0 | 0.00 | 0.57 | 0.40 | 73 | 1022.1 |
| 20260507084719 | 53 | 0 | 0.0 | 0.0 | 0.00 | 0.58 | 0.40 | 74 | 1022.1 |
| 20260507083603 | 53 | 0 | 0.0 | 0.0 | 0.00 | 0.61 | 0.40 | 73 | 1022.1 |
| 20260507082708 | 53 | 0 | 0.0 | 0.0 | 0.00 | 0.69 | 0.40 | 73 | 1022.0 |
| 20260507082014 | 53 | 0 | 0.0 | 0.0 | 0.00 | 0.69 | 0.40 | 73 | 1021.9 |
| 20260507080908 | 53 | 0 | 0.0 | 0.0 | 0.00 | 0.70 | 0.40 | 73 | 1021.8 |
| 20260507080004 | 53 | 0 | 0.0 | 0.0 | 0.00 | 0.70 | 0.40 | 74 | 1021.8 |
| 20260507075408 | 53 | 0 | 0.0 | 0.0 | 0.00 | 0.70 | 0.40 | 73 | 1021.8 |
| 20260507074503 | 53 | 0 | 0.0 | 0.0 | 0.00 | 0.70 | 0.40 | 73 | 1021.7 |
| 20260507073603 | 53 | 0 | 0.0 | 0.0 | 0.00 | 0.70 | 0.40 | 73 | 1021.7 |
| 20260507072703 | 53 | 0 | 0.0 | 0.0 | 0.00 | 0.70 | 0.40 | 73 | 1021.7 |
| 20260507071803 | 53 | 0 | 0.0 | 0.0 | 0.00 | 0.70 | 0.40 | 74 | 1021.7 |
| 20260507070903 | 53 | 0 | 0.0 | 0.0 | 0.00 | 0.70 | 0.40 | 75 | 1021.5 |
| 20260507070007 | 54 | 0 | 0.0 | 0.0 | 0.00 | 0.70 | 0.40 | 75 | 1021.5 |
| 20260507065403 | 54 | 0 | 0.0 | 0.0 | 0.00 | 0.70 | 0.40 | 74 | 1021.6 |
| 20260507064504 | 54 | 0 | 0.0 | 0.0 | 0.00 | 0.70 | 0.40 | 72 | 1021.6 |
| 20260507063608 | 54 | 0 | 0.0 | 0.0 | 0.00 | 0.70 | 0.40 | 72 | 1021.5 |
| 20260507062708 | 54 | 0 | 0.0 | 0.0 | 0.00 | 0.70 | 0.40 | 72 | 1021.7 |
| 20260507061808 | 54 | 0 | 0.0 | 0.0 | 0.00 | 0.70 | 0.40 | 76 | 1021.8 |
| 20260507060903 | 54 | 0 | 0.0 | 0.0 | 0.00 | 0.70 | 0.40 | 76 | 1021.9 |
| 20260507060008 | 54 | 0 | 0.0 | 0.0 | 0.00 | 0.70 | 0.40 | 77 | 1021.7 |
| 20260507055403 | 54 | 0 | 0.0 | 0.0 | 0.00 | 0.70 | 0.40 | 77 | 1021.8 |
| 20260507054503 | 54 | 0 | 0.0 | 0.0 | 0.00 | 0.70 | 0.40 | 77 | 1021.7 |
| 20260507053608 | 54 | 0 | 0.0 | 0.0 | 0.00 | 0.70 | 0.40 | 76 | 1021.8 |
| 20260507052703 | 54 | 0 | 0.0 | 0.0 | 0.00 | 0.70 | 0.40 | 76 | 1021.8 |
| 20260507051808 | 54 | 0 | 0.0 | 0.0 | 0.00 | 0.70 | 0.40 | 74 | 1021.7 |
| 20260507050908 | 54 | 0 | 0.0 | 0.0 | 0.00 | 0.70 | 0.40 | 73 | 1021.6 |
| 20260507050008 | 54 | 0 | 0.0 | 0.0 | 0.00 | 0.70 | 0.40 | 73 | 1021.6 |
| 20260507045403 | 53 | 0 | 0.0 | 0.0 | 0.00 | 0.70 | 0.40 | 74 | 1021.6 |
| 20260507044503 | 53 | 0 | 0.0 | 0.0 | 0.00 | 0.70 | 0.40 | 75 | 1021.7 |
| 20260507043603 | 53 | 0 | 0.0 | 0.0 | 0.00 | 0.70 | 0.40 | 76 | 1021.7 |
| 20260507042708 | 53 | 0 | 0.0 | 0.0 | 0.01 | 0.70 | 0.40 | 79 | 1021.7 |
| 20260507041808 | 53 | 0 | 0.0 | 0.0 | 0.02 | 0.70 | 0.40 | 81 | 1021.7 |
| 20260507040903 | 53 | 0 | 0.0 | 0.0 | 0.02 | 0.70 | 0.40 | 83 | 1021.7 |
| 20260507040004 | 52 | 0 | 0.0 | 0.0 | 0.02 | 0.70 | 0.40 | 85 | 1021.6 |
| 20260507035413 | 52 | 0 | 0.0 | 0.0 | 0.02 | 0.70 | 0.40 | 85 | 1021.8 |
| 20260507034508 | 51 | 0 | 0.0 | 0.0 | 0.02 | 0.70 | 0.40 | 84 | 1021.8 |
| 20260507033608 | 51 | 0 | 0.0 | 0.0 | 0.03 | 0.70 | 0.40 | 83 | 1022.0 |
| 20260507032708 | 52 | 0 | 0.0 | 0.0 | 0.02 | 0.69 | 0.39 | 81 | 1022.2 |
| 20260507031803 | 52 | 0 | 0.0 | 0.0 | 0.01 | 0.68 | 0.38 | 78 | 1022.1 |
| 20260507030908 | 53 | 0 | 0.0 | 0.0 | 0.01 | 0.68 | 0.38 | 78 | 1021.9 |
| 20260507030009 | 52 | 0 | 0.0 | 0.0 | 0.01 | 0.68 | 0.38 | 81 | 1021.9 |
| 20260507025623 | 52 | 0 | 0.0 | 0.0 | 0.01 | 0.68 | 0.38 | 81 | 1022.1 |
| 20260507024503 | 51 | 0 | 0.0 | 0.0 | 0.01 | 0.68 | 0.38 | 80 | 1022.0 |
| 20260507023818 | 51 | 0 | 0.0 | 0.0 | 0.00 | 0.67 | 0.37 | 82 | 1022.1 |
| 20260507022708 | 51 | 0 | 0.0 | 0.0 | 0.00 | 0.67 | 0.37 | 81 | 1022.2 |
| 20260507021804 | 51 | 0 | 0.0 | 0.0 | 0.01 | 0.67 | 0.37 | 83 | 1022.2 |
| 20260507020903 | 50 | 0 | 0.0 | 0.0 | 0.01 | 0.67 | 0.37 | 86 | 1022.1 |
| 20260507020213 | 49 | 0 | 0.0 | 0.0 | 0.01 | 0.67 | 0.37 | 88 | 1022.2 |
| 20260507015403 | 48 | 0 | 0.0 | 0.0 | 0.01 | 0.67 | 0.37 | 89 | 1022.1 |
| 20260507014508 | 48 | 0 | 0.0 | 0.0 | 0.02 | 0.67 | 0.37 | 89 | 1022.3 |
| 20260507013608 | 47 | 0 | 0.0 | 0.0 | 0.02 | 0.67 | 0.37 | 88 | 1022.3 |
| 20260507012703 | 47 | 0 | 0.0 | 0.0 | 0.04 | 0.67 | 0.37 | 88 | 1022.6 |
| 20260507012018 | 47 | 0 | 0.0 | 0.0 | 0.05 | 0.67 | 0.37 | 88 | 1022.5 |
| 20260507010903 | 47 | 0 | 0.0 | 0.0 | 0.04 | 0.66 | 0.36 | 88 | 1022.4 |
| 20260507010003 | 46 | 0 | 0.0 | 0.0 | 0.05 | 0.66 | 0.36 | 88 | 1022.1 |